Location: Dakoming
(43.5975°N, 104.0727°W)
Time: 23:58:39
(UTC+00:00)

Envisat - Visible Passes

Search period start: 10 June 2023 00:00
Search period end: 20 June 2023 00:00
Orbit: 763 x 765 km, 98.2° (Epoch: 10 June)

Date Brightness Start Highest point End Pass type
(mag) Time Alt. Az. Time Alt. Az. Time Alt. Az.
10 Jun 5.2 09:49:14 10° NE 09:53:09 22° E 09:57:03 10° SE visible
12 Jun 4.4 10:13:21 10° NNE 10:18:03 37° E 10:22:43 10° SSE visible
13 Jun 5.5 09:37:18 10° NE 09:40:35 17° E 09:43:51 10° SE visible
15 Jun 4.8 10:01:08 10° NE 10:05:31 29° E 10:09:53 10° SSE visible
16 Jun 5.6 09:25:40 10° ENE 09:27:59 13° E 09:30:18 10° ESE visible
17 Jun 3.9 10:25:26 10° NNE 10:30:22 48° E 10:35:15 10° S visible
18 Jun 5.1 09:49:01 10° NE 09:52:58 22° E 09:56:54 10° SE visible
